Regional Weather Roundup
Issued by NWS

Home | Current Version | Previous Version | Graphics & Text | Print | Product List | Glossary On
Versions: 1 2 3 4 5 6 7 8 9 10 11 12 13 14 15 16 17 18 19 20 21 22 23 24 25 26 27 28 29 30 31 32 33 34 35 36 37 38 39 40 41 42 43 44 45 46 47 48 49 50
000
ASUS43 KIND 301459
RWRIN

WEATHER ROUNDUP FOR INDIANA
NATIONAL WEATHER SERVICE INDIANAPOLIS IN
1100 AM EDT SUN AUG 30 2015

NOTE: "FAIR" INDICATES FEW OR NO CLOUDS BELOW 12,000 FEET WITH NO
SIGNIFICANT WEATHER AND/OR OBSTRUCTIONS TO VISIBILITY.

* - STATION DOES NOT REPORT WEATHER SUCH AS PRECIPITATION OR FOG.

+ - STATION NOT QUALITY CONTROLLED BY THE NATIONAL WEATHER SERVICE.
    USE DATA WITH CAUTION...ESPECIALLY DEWPOINT AND RELATIVE
    HUMIDITY OBSERVATIONS.

INZ001>003-010>013-019-020-301600-
NORTHWEST INDIANA

CITY           SKY/WX    TMP DP  RH WIND       PRES   REMARKS
GARY /AIRPORT/ CLOUDY    70  64  83 CALM      30.09S FOG
KNOX *+        CLOUDY    68  68 100 N3        30.08R VSB 1/4
MONTICELLO +   PTSUNNY   73  71  93 S5        30.07R

$$

LMZ046-743>745-301600-
SOUTHERN LAKE MICHIGAN

STATION/POSITION TIME  TEMP    WIND        PRES    WAVE
                       AIR SEA DIR/SP/G            HT
                 (UTC) (F)     (DEG/KT/KT) (MB)    (FT)
BURNS HARBOR     1400   68     320/  3/  4 1019.0R
MICHIGAN CITY    1400   71     280/  2/  3   N/A
5NW MICH CITY    1400   69 71  330/  4/  4   N/A     1

$$

INZ004-005-014>016-021>024-301600-
NORTH CENTRAL INDIANA

CITY           SKY/WX    TMP DP  RH WIND       PRES   REMARKS
ELKHART        CLOUDY    68  68 100 CALM      30.08  FOG
GOSHEN         CLOUDY    72  68  87 CALM      30.08R FOG
SOUTH BEND     CLOUDY    70  66  87 NW6       30.09R FOG
WARSAW +       CLOUDY    72  68  88 CALM      30.09R FOG

$$

INZ006>009-017-018-025>027-301600-
NORTHEAST INDIANA

CITY           SKY/WX    TMP DP  RH WIND       PRES   REMARKS
ANGOLA *+      PTSUNNY   75  68  78 CALM      30.07S
FORT WAYNE     MOSUNNY   77  69  76 W6        30.09S

$$

INZ028-029-035-036-043>045-051>053-301600-
WEST CENTRAL INDIANA

CITY           SKY/WX    TMP DP  RH WIND       PRES   REMARKS
CRAWFORDSVL +  PTSUNNY   75  62  64 W7        30.09S
GREENCASTLE +  MOSUNNY   77  61  57 CALM      30.10R
LAFAYETTE      MOSUNNY   76  66  71 S6        30.07S
TERRE HAUTE    CLOUDY    78  64  61 SW7       30.09S

$$

INZ030>032-037>040-046>048-054>057-064-065-301600-
CENTRAL INDIANA

CITY           SKY/WX    TMP DP  RH WIND       PRES   REMARKS
COLUMBUS       MOSUNNY   73  68  83 SW5       30.11S
FRANKFORT +    SUNNY     77  68  73 S9        30.10S
GREENWOOD *+   MOSUNNY   75  68  78 CALM      30.11R
INDIANAPOLIS   MOSUNNY   78  68  71 S6        30.09R
-EAGLE CREEK   SUNNY     78  68  71 VRB6      30.09R
KOKOMO *+      SUNNY     79  64  61 SW10      30.09R
MT COMFORT *+  MOSUNNY   77  72  83 SW5       30.10S
SHELBYVILLE    MOSUNNY   76  69  79 S7        30.10S
ZIONSVILLE +   SUNNY     78  65  65 SW6       30.11R

$$

INZ033-034-041-042-049-050-058-059-301600-
EAST CENTRAL INDIANA

CITY           SKY/WX    TMP DP  RH WIND       PRES   REMARKS
MUNCIE         MOSUNNY   76  68  76 SW6       30.10S

$$

INZ060-061-067>069-081>083-085>088-301600-
SOUTHWEST INDIANA

CITY           SKY/WX    TMP DP  RH WIND       PRES   REMARKS
EVANSVILLE     CLOUDY    78  69  73 CALM      30.10R
HUNTINGBURG *+ MOSUNNY   77  70  78 SW5       30.10S

$$

INZ062-063-066-070>080-084-089>092-301600-
SOUTH CENTRAL AND SOUTHEAST INDIANA

CITY           SKY/WX    TMP DP  RH WIND       PRES   REMARKS
BLOOMINGTON    MOSUNNY   78  69  73 SW5       30.11R
MADISON *+     MOSUNNY   77  68  73 SW7       30.14R
SEYMOUR +      PTSUNNY   77  68  73 S3        30.11R

$$




USA.gov is the U.S. government's official web portal to all federal, state and local government web resources and services.